Погода в Моке

Доминиканская Республика     19°23′40″N   70°31′26″W
темп.,
°C
ветер,
м/с
пор.,
м/с
влажн.,
%
обл.,
%
осадки,
мм/ч
давл.,
гПа
погр.,
м
22 октября, пт
пт2223:00+22вюв279215 0.0 1017217
02:00+21вюв28979 0.0 1015237
05:00+21юв279928 0.0 1015202
08:00+22юв28926 0.0 1016346
11:00+28юв476360 0.0 10171078
14:00+30юв475361 0.0 10141382
17:00+27юв476988 0.0 1014851
20:00+23вюв398577 0.0 1016339
23 октября, сб
сб2323:00+22вюв399039 0.0 1017446
02:00+21вюв289516 0.0 1016286
05:00+20вюв259786 0.0 1015130
08:00+22юв388769 0.0 1017474
11:00+27юв4655100 0.0 10171196
14:00+29юв464446 0.0 10141398
17:00+27юв3657100 0.0 1013760
20:00+22в228491 0.0 101555
24 октября, вс
вс2423:00+21вюв279395 0.0 1016209
02:00+20вюв2594100 0.0 1015108
05:00+19вюв24945 0.0 101598
08:00+22юв248227 0.0 1017199
11:00+28юв355247 0.0 10171226
14:00+30юв354459 0.0 10151448
17:00+28юв355829 0.0 10141018
20:00+22в228813 0.0 101734
25 октября, пн
пн2523:00+21вюв22929 0.0 101846
02:00+20юв239836 0.0 101778
05:00+20юв249965 0.0 1017109
08:00+23юв2491100 0.0 1018220
11:00+29юв3557100 0.0 10171334
14:00+31ююв34485 0.0 10141728
17:00+28вюв236215 0.1 1013820
20:00+22вюв1192100 0.6 101620
26 октября, вт
вт2623:00+22вюв1393100 0.0 101678
02:00+21юв139862 0.0 101586
05:00+21ююв129982 0.0 101460
08:00+23ююв139079 0.0 1016181
11:00+29ююв235472 0.0 10151087
14:00+31ююв2246100 0.0 10121622
17:00+27св1270100 0.6 1012141
20:00+23всв1193100 1.1 101413